QPF
0.19 0.18 0.16 0.15 0.16 0.19 0.21 0.22 0.21 0.19 0.19 0.17 0.14 0.14 0.12 0.12 0.11 0.09 0.17 0.21 0.12 0.09 0.06 0.05 0.04 0.04 0.05 0.06 0.06 0.04 0.04 0.03 0.03 0.02 0.01 0.02 0.02 0.01 0.01 0.01 0.01 0.01 0.00
0.19 0.19 0.18 0.19 0.20 0.19 0.21 0.26 0.25 0.20 0.18 0.16 0.12 0.14 0.11 0.13 0.12 0.12 0.12 0.17 0.11 0.07 0.05 0.05 0.04 0.04 0.05 0.06 0.06 0.06 0.05 0.04 0.04 0.03 0.02 0.01 0.02 0.02 0.01 0.00 0.00 0.01 0.01
0.14 0.14 0.14 0.15 0.15 0.13 0.15 0.16 0.15 0.15 0.12 0.12 0.11 0.11 0.11 0.11 0.10 0.11 0.10 0.12 0.11 0.07 0.05 0.05 0.04 0.04 0.04 0.05 0.04 0.05 0.06 0.05 0.04 0.03 0.02 0.01 0.01 0.01 0.01 0.01 0.00 0.00 0.00
0.08 0.10 0.11 0.11 0.11 0.09 0.09 0.09 0.09 0.10 0.10 0.09 0.08 0.07 0.07 0.07 0.07 0.08 0.08 0.08 0.09 0.07 0.07 0.07 0.05 0.04 0.03 0.04 0.04 0.04 0.04 0.05 0.05 0.04 0.03 0.02 0.01 0.01 0.01 0.01 0.01 0.00 0.00
0.04 0.05 0.05 0.08 0.07 0.06 0.05 0.05 0.06 0.06 0.06 0.06 0.04 0.05 0.04 0.05 0.05 0.05 0.06 0.07 0.09 0.09 0.07 0.09 0.07 0.05 0.04 0.03 0.03 0.04 0.04 0.04 0.05 0.05 0.05 0.03 0.02 0.01 0.01 0.01 0.01 0.00 0.00
0.01 0.02 0.02 0.03 0.03 0.03 0.04 0.04 0.06 0.06 0.05 0.06 0.02 0.03 0.02 0.03 0.03 0.03 0.03 0.04 0.04 0.05 0.05 0.06 0.10 0.05 0.04 0.04 0.05 0.05 0.04 0.03 0.04 0.04 0.06 0.06 0.05 0.03 0.02 0.01 0.01 0.01 0.00
0.01 0.01 0.02 0.02 0.01 0.02 0.02 0.02 0.03 0.04 0.04 0.04 0.02 0.01 0.01 0.01 0.01 0.01 0.01 0.02 0.02 0.03 0.05 0.07 0.09 0.09 0.07 0.06 0.05 0.05 0.05 0.06 0.05 0.04 0.04 0.06 0.07 0.04 0.02 0.01 0.01 0.01 0.00
0.00 0.01 0.01 0.01 0.01 0.02 0.01 0.02 0.03 0.02 0.01 0.01 0.01 0.01 0.01 0.01 0.02 0.02 0.03 0.03 0.04 0.05 0.04 0.07 0.10 0.12 0.09 0.14 0.07 0.04 0.05 0.06 0.06 0.07 0.06 0.05 0.04 0.04 0.03 0.01 0.01 0.01 0.00
0.00 0.00 0.00 0.00 0.01 0.01 0.01 0.01 0.02 0.02 0.01 0.01 0.01 0.01 0.01 0.01 0.02 0.02 0.02 0.03 0.05 0.05 0.05 0.07 0.08 0.10 0.09 0.11 0.12 0.07 0.05 0.05 0.07 0.08 0.09 0.07 0.05 0.03 0.03 0.02 0.02 0.01 0.01
0.00 0.00 0.00 0.00 0.00 0.00 0.00 0.00 0.01 0.01 0.02 0.01 0.01 0.01 0.01 0.01 0.01 0.01 0.02 0.03 0.04 0.04 0.04 0.03 0.05 0.09 0.10 0.12 0.13 0.09 0.07 0.05 0.06 0.09 0.12 0.10 0.07 0.05 0.03 0.03 0.03 0.02 0.01
0.00 0.00 0.00 0.00 0.00 0.00 0.00 0.00 0.00 0.01 0.01 0.01 0.01 0.01 0.01 0.02 0.02 0.02 0.02 0.02 0.03 0.03 0.03 0.03 0.03 0.04 0.07 0.11 0.13 0.09 0.08 0.06 0.05 0.06 0.10 0.11 0.09 0.06 0.05 0.05 0.05 0.04 0.03
0.00 0.00 0.00 0.00 0.00 0.00 0.00 0.01 0.01 0.01 0.02 0.02 0.02 0.01 0.01 0.01 0.02 0.02 0.02 0.02 0.02 0.01 0.02 0.02 0.03 0.04 0.05 0.07 0.07 0.08 0.08 0.06 0.06 0.07 0.08 0.10 0.10 0.09 0.07 0.06 0.06 0.06 0.06
0.00 0.00 0.00 0.00 0.00 0.01 0.01 0.01 0.01 0.01 0.01 0.02 0.02 0.01 0.01 0.01 0.01 0.01 0.01 0.01 0.01 0.00 0.01 0.02 0.03 0.05 0.05 0.07 0.08 0.07 0.06 0.06 0.05 0.05 0.07 0.09 0.11 0.11 0.09 0.08 0.08 0.10 0.09
0.00 0.00 0.00 0.00 0.01 0.01 0.01 0.01 0.01 0.01 0.01 0.02 0.01 0.02 0.02 0.01 0.00 0.01 0.01 0.01 0.01 0.01 0.01 0.02 0.03 0.05 0.07 0.08 0.10 0.07 0.07 0.04 0.04 0.04 0.05 0.07 0.08 0.09 0.09 0.09 0.08 0.08 0.09
0.00 0.00 0.00 0.00 0.01 0.01 0.01 0.01 0.01 0.01 0.01 0.02 0.01 0.02 0.02 0.01 0.01 0.01 0.01 0.01 0.02 0.01 0.01 0.02 0.03 0.04 0.06 0.07 0.07 0.06 0.09 0.06 0.04 0.04 0.04 0.05 0.06 0.06 0.07 0.07 0.07 0.06 0.05
0.00 0.00 0.00 0.01 0.01 0.01 0.01 0.02 0.02 0.02 0.02 0.02 0.02 0.02 0.02 0.01 0.01 0.01 0.01 0.01 0.01 0.02 0.01 0.01 0.02 0.03 0.03 0.03 0.05 0.06 0.09 0.09 0.06 0.05 0.04 0.04 0.05 0.06 0.06 0.06 0.05 0.05 0.04
0.01 0.01 0.01 0.01 0.01 0.01 0.01 0.02 0.02 0.02 0.02 0.02 0.02 0.02 0.03 0.03 0.03 0.02 0.02 0.02 0.02 0.03 0.03 0.01 0.01 0.02 0.03 0.03 0.04 0.06 0.07 0.09 0.10 0.07 0.05 0.05 0.05 0.06 0.07 0.07 0.06 0.05 0.04
0.01 0.01 0.01 0.01 0.01 0.01 0.01 0.02 0.02 0.02 0.02 0.03 0.03 0.03 0.03 0.03 0.05 0.04 0.03 0.03 0.03 0.04 0.04 0.02 0.02 0.02 0.04 0.04 0.05 0.06 0.06 0.07 0.10 0.09 0.07 0.06 0.06 0.07 0.07 0.08 0.08 0.06 0.05
0.01 0.01 0.01 0.01 0.01 0.01 0.01 0.02 0.02 0.02 0.03 0.03 0.04 0.04 0.04 0.04 0.04 0.05 0.06 0.04 0.04 0.03 0.05 0.04 0.02 0.02 0.02 0.03 0.05 0.06 0.06 0.08 0.07 0.08 0.08 0.08 0.07 0.07 0.08 0.08 0.09 0.07 0.07
0.01 0.01 0.01 0.01 0.01 0.01 0.01 0.01 0.02 0.03 0.03 0.03 0.04 0.04 0.03 0.04 0.05 0.05 0.05 0.05 0.04 0.04 0.05 0.05 0.03 0.03 0.02 0.03 0.05 0.06 0.07 0.09 0.09 0.06 0.06 0.08 0.08 0.08 0.09 0.09 0.09 0.09 0.08
0.00 0.01 0.01 0.01 0.01 0.01 0.01 0.01 0.01 0.02 0.02 0.02 0.03 0.03 0.03 0.03 0.03 0.03 0.02 0.03 0.05 0.05 0.05 0.05 0.04 0.04 0.04 0.04 0.05 0.07 0.09 0.11 0.12 0.12 0.10 0.08 0.09 0.08 0.08 0.09 0.11 0.10 0.09
0.01 0.01 0.01 0.01 0.01 0.01 0.00 0.00 0.00 0.00 0.00 0.01 0.01 0.02 0.03 0.02 0.01 0.01 0.00 0.00 0.01 0.02 0.03 0.05 0.05 0.05 0.06 0.06 0.07 0.07 0.10 0.11 0.12 0.15 0.18 0.17 0.16 0.15 0.11 0.09 0.09 0.10 0.10
0.01 0.01 0.01 0.01 0.01 0.02 0.01 0.00 0.00 0.00 0.00 0.00 0.01 0.02 0.02 0.01 0.03 0.05 0.04 0.02 0.01 0.00 0.00 0.02 0.03 0.04 0.06 0.07 0.09 0.09 0.10 0.13 0.14 0.17 0.22 0.23 0.23 0.23 0.20 0.16 0.15 0.13 0.12
0.01 0.01 0.01 0.01 0.02 0.02 0.01 0.00 0.00 0.00 0.00 0.01 0.02 0.03 0.05 0.04 0.04 0.05 0.07 0.07 0.07 0.05 0.03 0.01 0.01 0.01 0.03 0.07 0.10 0.10 0.12 0.14 0.16 0.19 0.24 0.27 0.26 0.25 0.23 0.20 0.19 0.15 0.14
0.01 0.01 0.01 0.02 0.02 0.02 0.01 0.00 0.00 0.00 0.01 0.01 0.02 0.03 0.04 0.05 0.04 0.01 0.02 0.04 0.05 0.06 0.03 0.01 0.01 0.01 0.01 0.01 0.03 0.07 0.10 0.13 0.15 0.16 0.19 0.22 0.23 0.25 0.23 0.20 0.20 0.18 0.15
0.01 0.01 0.01 0.01 0.02 0.03 0.02 0.00 0.00 0.00 0.01 0.01 0.03 0.04 0.02 0.01 0.01 0.01 0.02 0.05 0.05 0.06 0.07 0.07 0.05 0.02 0.01 0.00 0.00 0.02 0.07 0.11 0.15 0.17 0.17 0.18 0.18 0.20 0.22 0.20 0.18 0.16 0.14
MSLP
1015.05 1015.19 1015.31 1015.44 1015.60 1015.78 1015.98 1016.18 1016.35 1016.49 1016.59 1016.66 1016.71 1016.75 1016.82 1016.90 1017.01 1017.13 1017.24 1017.35 1017.43 1017.51 1017.60 1017.72 1017.89 1018.13 1018.42 1018.77 1019.16 1019.56 1019.95 1020.32 1020.68 1021.02 1021.36 1021.70 1022.05 1022.41 1022.76 1023.09 1023.38 1023.63 1023.84
1015.11 1015.25 1015.39 1015.54 1015.71 1015.88 1016.06 1016.22 1016.36 1016.45 1016.51 1016.54 1016.57 1016.60 1016.65 1016.71 1016.78 1016.85 1016.91 1016.96 1017.00 1017.04 1017.10 1017.22 1017.40 1017.66 1017.97 1018.34 1018.74 1019.14 1019.53 1019.89 1020.24 1020.59 1020.94 1021.31 1021.70 1022.11 1022.50 1022.87 1023.20 1023.48 1023.71
1015.16 1015.32 1015.48 1015.65 1015.83 1016.02 1016.19 1016.32 1016.41 1016.46 1016.47 1016.46 1016.44 1016.43 1016.43 1016.43 1016.44 1016.44 1016.43 1016.41 1016.39 1016.39 1016.44 1016.57 1016.77 1017.07 1017.42 1017.83 1018.25 1018.66 1019.04 1019.41 1019.75 1020.10 1020.46 1020.86 1021.28 1021.72 1022.15 1022.56 1022.93 1023.24 1023.51
1015.18 1015.35 1015.54 1015.74 1015.95 1016.15 1016.32 1016.43 1016.49 1016.50 1016.46 1016.39 1016.32 1016.25 1016.18 1016.11 1016.04 1015.96 1015.86 1015.76 1015.67 1015.64 1015.68 1015.81 1016.05 1016.38 1016.79 1017.23 1017.68 1018.11 1018.50 1018.87 1019.21 1019.56 1019.93 1020.34 1020.78 1021.25 1021.73 1022.18 1022.58 1022.94 1023.24
1015.16 1015.34 1015.55 1015.79 1016.04 1016.26 1016.44 1016.55 1016.58 1016.55 1016.46 1016.35 1016.22 1016.09 1015.95 1015.81 1015.65 1015.47 1015.29 1015.10 1014.95 1014.87 1014.89 1015.03 1015.29 1015.65 1016.10 1016.58 1017.06 1017.51 1017.91 1018.28 1018.63 1018.98 1019.35 1019.77 1020.24 1020.74 1021.24 1021.72 1022.17 1022.56 1022.90
1015.11 1015.29 1015.53 1015.80 1016.08 1016.34 1016.53 1016.64 1016.66 1016.60 1016.48 1016.33 1016.16 1015.98 1015.79 1015.58 1015.35 1015.09 1014.81 1014.55 1014.34 1014.20 1014.18 1014.30 1014.57 1014.95 1015.41 1015.91 1016.41 1016.87 1017.29 1017.66 1018.01 1018.36 1018.75 1019.18 1019.66 1020.17 1020.70 1021.21 1021.68 1022.11 1022.49
1015.04 1015.22 1015.48 1015.78 1016.10 1016.37 1016.58 1016.70 1016.72 1016.65 1016.52 1016.36 1016.16 1015.95 1015.73 1015.48 1015.19 1014.87 1014.52 1014.19 1013.91 1013.71 1013.65 1013.73 1013.96 1014.32 1014.78 1015.27 1015.77 1016.23 1016.65 1017.02 1017.38 1017.73 1018.12 1018.56 1019.04 1019.57 1020.10 1020.63 1021.13 1021.58 1021.99
1014.98 1015.16 1015.43 1015.75 1016.09 1016.38 1016.61 1016.73 1016.76 1016.70 1016.57 1016.41 1016.22 1016.01 1015.78 1015.51 1015.20 1014.84 1014.45 1014.06 1013.72 1013.46 1013.33 1013.35 1013.52 1013.84 1014.25 1014.70 1015.17 1015.61 1016.02 1016.38 1016.73 1017.09 1017.48 1017.91 1018.40 1018.92 1019.46 1019.99 1020.50 1020.98 1021.41
1014.97 1015.14 1015.40 1015.73 1016.07 1016.37 1016.60 1016.73 1016.77 1016.72 1016.61 1016.47 1016.31 1016.13 1015.92 1015.66 1015.35 1014.99 1014.57 1014.15 1013.76 1013.44 1013.24 1013.18 1013.27 1013.50 1013.84 1014.23 1014.64 1015.04 1015.41 1015.76 1016.10 1016.44 1016.82 1017.25 1017.72 1018.23 1018.76 1019.29 1019.80 1020.28 1020.73
1014.99 1015.15 1015.40 1015.71 1016.03 1016.32 1016.54 1016.67 1016.71 1016.68 1016.60 1016.50 1016.37 1016.24 1016.07 1015.86 1015.58 1015.23 1014.82 1014.38 1013.96 1013.59 1013.32 1013.18 1013.18 1013.31 1013.55 1013.85 1014.18 1014.52 1014.84 1015.15 1015.47 1015.80 1016.16 1016.57 1017.02 1017.51 1018.01 1018.53 1019.02 1019.51 1019.97
1015.04 1015.17 1015.40 1015.67 1015.96 1016.22 1016.42 1016.53 1016.57 1016.55 1016.50 1016.43 1016.36 1016.27 1016.16 1016.00 1015.77 1015.46 1015.08 1014.65 1014.22 1013.82 1013.50 1013.28 1013.19 1013.23 1013.35 1013.55 1013.79 1014.05 1014.31 1014.58 1014.86 1015.16 1015.50 1015.88 1016.31 1016.76 1017.24 1017.73 1018.21 1018.69 1019.16
1015.09 1015.19 1015.37 1015.60 1015.84 1016.05 1016.21 1016.29 1016.32 1016.31 1016.28 1016.24 1016.21 1016.18 1016.12 1016.02 1015.85 1015.59 1015.25 1014.86 1014.44 1014.03 1013.68 1013.42 1013.25 1013.19 1013.22 1013.32 1013.46 1013.64 1013.83 1014.04 1014.27 1014.54 1014.85 1015.20 1015.60 1016.02 1016.47 1016.93 1017.40 1017.86 1018.33
1015.08 1015.15 1015.29 1015.46 1015.64 1015.79 1015.90 1015.95 1015.96 1015.94 1015.92 1015.91 1015.91 1015.92 1015.91 1015.86 1015.75 1015.55 1015.27 1014.93 1014.55 1014.16 1013.81 1013.52 1013.31 1013.18 1013.12 1013.13 1013.18 1013.27 1013.39 1013.54 1013.73 1013.96 1014.23 1014.55 1014.92 1015.32 1015.74 1016.17 1016.62 1017.07 1017.54
1015.01 1015.05 1015.14 1015.26 1015.37 1015.46 1015.51 1015.53 1015.51 1015.48 1015.45 1015.45 1015.47 1015.51 1015.53 1015.52 1015.46 1015.32 1015.10 1014.83 1014.50 1014.17 1013.84 1013.56 1013.32 1013.15 1013.04 1012.97 1012.94 1012.96 1013.01 1013.10 1013.23 1013.42 1013.67 1013.96 1014.30 1014.67 1015.07 1015.48 1015.91 1016.35 1016.81
1014.86 1014.87 1014.92 1014.99 1015.05 1015.08 1015.09 1015.06 1015.01 1014.96 1014.93 1014.92 1014.94 1014.98 1015.02 1015.04 1015.01 1014.92 1014.77 1014.56 1014.31 1014.04 1013.77 1013.52 1013.29 1013.11 1012.96 1012.84 1012.75 1012.70 1012.68 1012.72 1012.81 1012.96 1013.17 1013.44 1013.76 1014.11 1014.48 1014.88 1015.29 1015.71 1016.16
1014.63 1014.63 1014.65 1014.68 1014.70 1014.70 1014.66 1014.60 1014.53 1014.46 1014.41 1014.39 1014.39 1014.42 1014.46 1014.48 1014.47 1014.42 1014.32 1014.18 1014.00 1013.81 1013.60 1013.41 1013.22 1013.04 1012.88 1012.73 1012.60 1012.49 1012.43 1012.42 1012.46 1012.58 1012.76 1013.01 1013.30 1013.63 1013.99 1014.36 1014.75 1015.15 1015.58
1014.35 1014.36 1014.37 1014.38 1014.38 1014.35 1014.29 1014.21 1014.12 1014.03 1013.96 1013.91 1013.89 1013.89 1013.90 1013.91 1013.90 1013.87 1013.81 1013.73 1013.62 1013.51 1013.38 1013.25 1013.11 1012.96 1012.80 1012.64 1012.49 1012.35 1012.24 1012.19 1012.20 1012.28 1012.44 1012.66 1012.92 1013.23 1013.56 1013.91 1014.26 1014.63 1015.02
1014.05 1014.07 1014.10 1014.11 1014.10 1014.07 1014.00 1013.91 1013.81 1013.70 1013.60 1013.53 1013.47 1013.43 1013.40 1013.38 1013.36 1013.34 1013.30 1013.26 1013.22 1013.17 1013.12 1013.05 1012.96 1012.85 1012.72 1012.56 1012.40 1012.24 1012.11 1012.03 1012.01 1012.06 1012.19 1012.38 1012.62 1012.89 1013.19 1013.49 1013.80 1014.12 1014.46
1013.76 1013.80 1013.85 1013.87 1013.87 1013.84 1013.77 1013.68 1013.57 1013.45 1013.33 1013.22 1013.12 1013.04 1012.97 1012.91 1012.87 1012.83 1012.81 1012.80 1012.81 1012.82 1012.82 1012.82 1012.78 1012.71 1012.61 1012.47 1012.31 1012.14 1012.00 1011.90 1011.86 1011.90 1012.00 1012.16 1012.36 1012.59 1012.83 1013.08 1013.33 1013.58 1013.85
1013.47 1013.54 1013.60 1013.64 1013.66 1013.63 1013.57 1013.48 1013.36 1013.23 1013.09 1012.95 1012.82 1012.69 1012.58 1012.49 1012.41 1012.36 1012.34 1012.35 1012.38 1012.44 1012.49 1012.53 1012.54 1012.52 1012.44 1012.32 1012.18 1012.03 1011.89 1011.79 1011.74 1011.76 1011.84 1011.97 1012.14 1012.32 1012.50 1012.68 1012.85 1013.02 1013.21
1013.19 1013.27 1013.35 1013.40 1013.41 1013.39 1013.33 1013.24 1013.12 1012.98 1012.82 1012.66 1012.49 1012.34 1012.19 1012.06 1011.96 1011.90 1011.87 1011.89 1011.94 1012.02 1012.10 1012.18 1012.23 1012.23 1012.19 1012.10 1011.98 1011.85 1011.73 1011.65 1011.61 1011.63 1011.70 1011.81 1011.94 1012.07 1012.19 1012.29 1012.38 1012.46 1012.56
1012.90 1012.98 1013.04 1013.08 1013.09 1013.06 1013.00 1012.90 1012.78 1012.63 1012.46 1012.29 1012.11 1011.93 1011.76 1011.61 1011.49 1011.42 1011.39 1011.40 1011.46 1011.55 1011.65 1011.75 1011.82 1011.85 1011.83 1011.77 1011.69 1011.59 1011.50 1011.45 1011.43 1011.47 1011.54 1011.65 1011.75 1011.85 1011.92 1011.95 1011.96 1011.96 1011.98
1012.59 1012.63 1012.67 1012.68 1012.66 1012.62 1012.54 1012.43 1012.31 1012.16 1012.00 1011.82 1011.64 1011.46 1011.29 1011.13 1011.01 1010.93 1010.89 1010.90 1010.95 1011.04 1011.14 1011.24 1011.32 1011.36 1011.36 1011.33 1011.28 1011.22 1011.17 1011.16 1011.19 1011.26 1011.36 1011.47 1011.58 1011.66 1011.69 1011.69 1011.64 1011.58 1011.53
1012.22 1012.22 1012.21 1012.18 1012.12 1012.05 1011.96 1011.84 1011.72 1011.58 1011.43 1011.28 1011.11 1010.95 1010.79 1010.64 1010.52 1010.44 1010.40 1010.40 1010.44 1010.51 1010.59 1010.67 1010.74 1010.78 1010.79 1010.78 1010.75 1010.73 1010.73 1010.77 1010.84 1010.96 1011.11 1011.26 1011.39 1011.49 1011.53 1011.51 1011.44 1011.35 1011.27
1011.81 1011.74 1011.67 1011.59 1011.50 1011.40 1011.30 1011.19 1011.08 1010.96 1010.84 1010.71 1010.58 1010.44 1010.30 1010.18 1010.06 1009.98 1009.93 1009.92 1009.93 1009.98 1010.03 1010.08 1010.12 1010.14 1010.15 1010.14 1010.13 1010.13 1010.18 1010.26 1010.39 1010.57 1010.77 1010.98 1011.17 1011.31 1011.38 1011.39 1011.35 1011.27 1011.18
1011.33 1011.21 1011.08 1010.96 1010.84 1010.73 1010.63 1010.54 1010.45 1010.37 1010.29 1010.20 1010.10 1009.99 1009.88 1009.77 1009.67 1009.58 1009.52 1009.48 1009.47 1009.47 1009.48 1009.49 1009.49 1009.48 1009.46 1009.44 1009.44 1009.46 1009.53 1009.66 1009.84 1010.07 1010.34 1010.61 1010.87 1011.08 1011.22 1011.30 1011.31 1011.28 1011.23
Thickness
5738 5737 5735 5734 5733 5731 5729 5728 5728 5729 5730 5730 5731 5734 5735 5737 5737 5734 5732 5730 5730 5730 5730 5729 5729 5729 5728 5728 5727 5726 5726 5725 5725 5724 5724 5723 5722 5721 5720 5720 5719 5718 5717
5733 5731 5730 5730 5728 5726 5725 5724 5725 5725 5725 5727 5728 5730 5731 5732 5732 5730 5729 5729 5729 5728 5728 5728 5728 5728 5727 5727 5726 5726 5726 5725 5725 5724 5723 5723 5722 5721 5721 5720 5719 5718 5717
5728 5727 5726 5725 5724 5722 5722 5721 5721 5721 5722 5724 5725 5727 5728 5728 5729 5729 5729 5729 5728 5727 5728 5728 5728 5727 5726 5726 5726 5726 5725 5725 5725 5724 5723 5723 5722 5722 5721 5720 5719 5718 5717
5725 5722 5722 5721 5719 5719 5718 5718 5718 5717 5717 5719 5720 5722 5725 5725 5726 5727 5727 5727 5727 5728 5728 5727 5727 5726 5725 5725 5726 5726 5725 5725 5725 5724 5724 5723 5722 5722 5721 5720 5719 5718 5717
5720 5718 5717 5716 5715 5714 5714 5714 5713 5712 5711 5712 5714 5717 5720 5722 5723 5724 5725 5726 5727 5727 5727 5727 5726 5725 5725 5725 5725 5725 5725 5725 5724 5724 5724 5723 5722 5722 5721 5721 5720 5719 5718
5715 5713 5712 5711 5709 5709 5708 5708 5707 5707 5706 5707 5709 5712 5714 5717 5720 5721 5722 5724 5725 5725 5726 5726 5726 5725 5724 5724 5724 5725 5725 5725 5724 5724 5724 5723 5722 5722 5722 5721 5720 5720 5719
5711 5708 5707 5705 5705 5704 5703 5702 5701 5700 5700 5703 5701 5702 5707 5714 5717 5719 5720 5721 5722 5723 5724 5725 5725 5725 5724 5723 5724 5724 5724 5724 5724 5724 5723 5723 5722 5722 5722 5722 5721 5720 5719
5707 5706 5702 5701 5700 5698 5697 5697 5696 5693 5693 5697 5694 5691 5692 5698 5707 5716 5716 5717 5718 5719 5719 5721 5721 5722 5722 5723 5722 5722 5722 5723 5723 5723 5723 5722 5722 5722 5722 5722 5721 5721 5720
5705 5701 5698 5696 5694 5693 5692 5691 5690 5688 5686 5689 5691 5686 5682 5683 5690 5701 5707 5709 5711 5712 5713 5714 5715 5716 5718 5719 5720 5720 5721 5721 5722 5722 5722 5722 5722 5722 5721 5721 5721 5720 5720
5703 5699 5696 5693 5690 5688 5687 5687 5687 5683 5682 5680 5683 5685 5685 5684 5678 5681 5690 5698 5702 5704 5706 5708 5710 5711 5712 5714 5715 5717 5719 5720 5720 5720 5720 5721 5721 5721 5720 5720 5721 5720 5720
5701 5698 5695 5691 5687 5684 5683 5682 5680 5678 5676 5675 5674 5675 5676 5677 5677 5672 5673 5681 5688 5695 5698 5701 5703 5705 5706 5708 5710 5712 5714 5716 5717 5718 5718 5719 5720 5719 5719 5720 5720 5720 5719
5699 5697 5693 5689 5684 5681 5679 5676 5674 5672 5671 5669 5668 5667 5667 5667 5667 5667 5666 5670 5674 5683 5690 5693 5696 5698 5700 5703 5705 5707 5709 5711 5713 5714 5716 5716 5717 5718 5718 5719 5719 5719 5719
5694 5692 5689 5684 5680 5677 5674 5672 5670 5667 5666 5664 5662 5661 5661 5662 5663 5663 5662 5662 5665 5672 5679 5684 5689 5692 5694 5696 5699 5701 5703 5706 5708 5710 5712 5713 5715 5716 5717 5717 5718 5718 5719
5690 5688 5684 5680 5677 5674 5671 5668 5665 5663 5662 5659 5657 5656 5654 5655 5656 5656 5655 5654 5653 5658 5665 5672 5680 5685 5687 5689 5691 5693 5696 5700 5703 5705 5707 5710 5712 5713 5715 5715 5716 5717 5717
5687 5684 5680 5676 5673 5670 5666 5663 5660 5657 5655 5654 5652 5650 5649 5648 5649 5649 5649 5648 5645 5643 5649 5659 5666 5674 5678 5681 5683 5686 5689 5692 5696 5700 5703 5705 5708 5710 5711 5713 5714 5715 5716
5681 5678 5675 5672 5668 5665 5662 5658 5655 5652 5649 5647 5645 5643 5641 5640 5640 5640 5641 5641 5641 5639 5640 5649 5655 5663 5668 5673 5676 5678 5681 5685 5689 5693 5697 5701 5704 5706 5708 5710 5712 5713 5714
5679 5674 5671 5667 5664 5660 5657 5653 5649 5646 5643 5640 5638 5636 5634 5633 5631 5631 5632 5632 5632 5633 5632 5638 5645 5652 5657 5661 5666 5670 5673 5677 5682 5687 5691 5695 5699 5702 5704 5706 5708 5710 5712
5676 5672 5668 5663 5659 5656 5652 5647 5643 5640 5636 5632 5630 5628 5626 5625 5624 5622 5621 5622 5623 5625 5624 5626 5633 5639 5646 5652 5656 5661 5665 5670 5676 5681 5686 5690 5694 5697 5700 5702 5704 5707 5709
5673 5669 5664 5659 5655 5650 5646 5642 5637 5633 5629 5626 5623 5620 5618 5616 5614 5614 5613 5613 5614 5617 5619 5619 5624 5630 5636 5642 5647 5652 5657 5662 5668 5674 5679 5684 5688 5692 5695 5698 5701 5704 5706
5670 5665 5660 5656 5651 5646 5641 5636 5631 5627 5622 5618 5615 5613 5611 5609 5607 5606 5605 5605 5605 5606 5608 5610 5614 5619 5625 5633 5638 5641 5646 5652 5659 5666 5672 5677 5682 5686 5690 5694 5697 5700 5703
5667 5662 5657 5651 5646 5641 5637 5631 5625 5620 5615 5611 5608 5605 5604 5603 5602 5600 5599 5598 5597 5596 5598 5600 5604 5609 5615 5620 5626 5632 5637 5643 5650 5657 5663 5669 5675 5680 5684 5688 5692 5696 5700
5663 5658 5652 5646 5640 5636 5629 5622 5615 5611 5606 5602 5599 5598 5596 5595 5595 5594 5592 5591 5589 5588 5588 5589 5593 5598 5604 5610 5616 5622 5627 5632 5638 5649 5653 5660 5667 5672 5679 5684 5689 5693 5696
5658 5653 5647 5641 5635 5629 5622 5615 5608 5602 5598 5595 5592 5590 5589 5590 5589 5587 5585 5584 5583 5582 5581 5581 5584 5589 5594 5600 5606 5611 5616 5622 5630 5639 5644 5650 5658 5664 5670 5677 5683 5687 5691
5653 5647 5641 5636 5630 5624 5617 5610 5603 5596 5592 5589 5587 5585 5583 5582 5581 5579 5577 5577 5576 5577 5577 5577 5580 5583 5588 5592 5597 5603 5608 5615 5623 5630 5636 5640 5648 5654 5660 5667 5674 5679 5684
5648 5642 5637 5631 5625 5619 5612 5604 5596 5592 5589 5586 5584 5582 5579 5577 5575 5572 5569 5569 5569 5569 5571 5573 5576 5579 5583 5586 5590 5593 5599 5604 5611 5620 5628 5633 5639 5644 5649 5655 5662 5668 5674
5643 5638 5633 5627 5621 5615 5608 5600 5591 5587 5584 5581 5579 5577 5575 5572 5569 5565 5563 5562 5560 5561 5562 5564 5567 5571 5575 5579 5583 5586 5592 5596 5604 5611 5620 5626 5631 5635 5638 5645 5651 5657 5663